FW8938 Weather Reports


time (UTC)temp
F
wind
direction
speed
knots
gust
knots
rain 1hr
in
rain 24hr
in
rain mn
in
humidity
%
barometer
mb
20260510201552 69 144 7.8 12.2 0.00 0.00 0.00 42 1020.5
20260510200113 69 157 8.7 13.9 0.00 0.00 0.00 42 1020.6
20260510194555 69 225 7.0 13.9 0.00 0.00 0.00 42 1020.6
20260510193057 68 221 7.8 12.2 0.00 0.00 0.00 42 1020.5
20260510191550 69 230 6.1 13.0 0.00 0.00 0.00 44 1020.6
20260510190059 68 229 7.0 13.9 0.00 0.00 0.00 42 1020.8
20260510184604 68 163 9.6 17.4 0.00 0.00 0.00 42 1020.7
20260510183104 67 157 7.8 12.2 0.00 0.00 0.00 45 1020.2
20260510181610 67 216 5.2 11.3 0.00 0.00 0.00 44 1020.5
20260510180056 67 202 7.8 13.9 0.00 0.00 0.00 46 1020.2
20260510174557 66 204 6.1 13.9 0.00 0.00 0.00 46 1020.1
20260510173058 66 150 7.8 15.6 0.00 0.00 0.00 46 1020.2
20260510171558 66 200 7.8 13.9 0.00 0.00 0.00 47 1020.1
20260510170059 65 225 7.8 13.0 0.00 0.00 0.00 50 1019.9
20260510164600 65 197 6.1 16.5 0.00 0.00 0.00 50 1020.1
20260510163059 64 136 7.0 11.3 0.00 0.00 0.00 53 1020.0
20260510161556 63 193 8.7 16.5 0.00 0.00 0.00 51 1019.7
20260510160101 63 227 4.3 15.6 0.00 0.00 0.00 52 1019.7
20260510154555 63 235 11.3 17.4 0.00 0.00 0.00 51 1019.4
20260510153057 63 161 7.8 13.9 0.00 0.00 0.00 54 1019.5
20260510151552 62 175 7.8 17.4 0.00 0.00 0.00 58 1019.7
20260510150055 62 221 9.6 15.6 0.00 0.00 0.00 59 1019.7
20260510144554 62 205 8.7 13.9 0.00 0.00 0.00 59 1019.7
20260510143059 62 202 7.0 15.6 0.00 0.00 0.00 63 1019.4
20260510141557 61 223 8.7 14.8 0.00 0.00 0.00 65 1019.2
20260510140057 61 212 7.0 14.8 0.00 0.00 0.00 67 1018.9
20260510134604 61 217 9.6 14.8 0.00 0.00 0.00 70 1018.9
20260510133052 61 208 7.0 13.9 0.00 0.00 0.00 73 1018.7
20260510131552 60 214 7.8 13.9 0.00 0.00 0.00 76 1018.4
20260510130051 60 150 5.2 14.8 0.00 0.00 0.00 78 1018.1
20260510124602 59 218 5.2 9.6 0.00 0.00 0.00 79 1017.7
20260510123059 59 218 4.3 10.4 0.00 0.00 0.00 80 1017.6
20260510121552 58 211 3.5 6.1 0.00 0.00 0.00 81 1017.4
20260510120051 58 221 2.6 6.1 0.00 0.00 0.00 81 1017.4
20260510114552 58 185 1.7 5.2 0.00 0.00 0.00 81 1017.0
20260510113053 58 207 2.6 5.2 0.00 0.00 0.00 81 1016.7
20260510111553 58 182 2.6 6.1 0.00 0.00 0.00 81 1016.5
20260510110052 58 219 1.7 4.3 0.00 0.00 0.00 82 1016.2
20260510104554 58 205 0.9 3.5 0.00 0.00 0.00 81 1016.3
20260510103100 59 165 3.5 6.1 0.00 0.00 0.00 79 1016.0
20260510101606 60 186 1.7 7.0 0.00 0.00 0.00 76 1015.9
20260510094556 61 145 0.9 3.5 0.00 0.00 0.00 71 1015.3
20260510093052 62 198 1.7 2.6 0.00 0.00 0.00 68 1015.2
20260510091554 63 192 2.6 5.2 0.00 0.00 0.00 65 1015.4
20260510090058 63 122 0.9 3.5 0.00 0.00 0.00 64 1015.1
20260510084605 63 0 0.0 0.9 0.00 0.01 0.00 65 1014.6
20260510083054 62 0 0.0 0.0 0.00 0.01 0.00 65 1014.6
20260510081600 61 0 0.0 0.0 0.00 0.01 0.00 70 1014.7
20260510080056 62 0 0.0 0.0 0.00 0.01 0.00 68 1014.8
20260510074610 61 0 0.0 0.0 0.00 0.01 0.00 69 1014.7
20260510073105 60 0 0.0 0.0 0.00 0.01 0.00 68 1014.5
20260510071558 59 0 0.0 0.0 0.00 0.01 0.00 72 1014.7
20260510070058 59 0 0.0 0.0 0.00 0.01 0.00 73 1014.6
20260510064600 60 0 0.9 3.5 0.00 0.01 0.00 72 1014.6
20260510063105 60 0 0.0 0.0 0.00 0.01 0.00 70 1014.6
20260510061603 61 0 0.0 0.0 0.00 0.01 0.00 68 1014.6
20260510060059 62 0 0.0 0.0 0.00 0.01 0.00 66 1014.7
20260510054601 63 0 0.0 0.9 0.00 0.01 0.00 63 1014.7
20260510053054 64 0 0.0 7.8 0.00 0.01 0.00 61 1014.9
20260510051555 63 157 6.1 9.6 0.00 0.01 0.00 64 1014.6
20260510050057 64 46 0.9 2.6 0.00 0.01 0.00 62 1014.0
20260510044553 63 59 0.0 0.9 0.00 0.01 0.01 62 1013.9
20260510043056 64 0 0.0 0.9 0.00 0.01 0.01 60 1013.8
20260510041620 64 0 0.0 0.0 0.00 0.01 0.01 59 1013.5
20260510040056 64 0 0.0 2.6 0.00 0.01 0.01 60 1013.4
20260510034559 63 40 0.0 0.9 0.00 0.02 0.01 63 1013.5
20260510033106 63 0 0.0 0.0 0.00 0.02 0.01 64 1013.5
20260510031555 64 0 0.0 0.0 0.00 0.02 0.01 64 1013.5
20260510030055 65 0 0.0 0.0 0.00 0.02 0.01 58 1013.4
20260510024609 67 0 0.0 0.0 0.00 0.03 0.01 56 1013.1
20260510023059 66 0 0.0 0.9 0.00 0.03 0.01 56 1012.7
20260510021555 66 0 0.0 0.0 0.00 0.03 0.01 58 1012.6
20260510020054 67 0 0.0 0.0 0.00 0.03 0.01 55 1012.2
20260510014615 68 0 0.0 0.0 0.00 0.03 0.01 54 1012.0
20260510013104 70 0 0.0 0.0 0.00 0.03 0.01 50 1011.7
20260510011556 73 0 0.0 0.0 0.00 0.03 0.01 49 1011.4
20260510010057 76 0 0.0 0.9 0.00 0.03 0.01 43 1011.3
20260510004603 78 0 0.0 0.0 0.00 0.03 0.01 41 1011.2
20260510003052 78 0 0.0 0.9 0.00 0.03 0.01 38 1011.0
20260510001552 78 0 0.0 1.7 0.00 0.03 0.01 35 1011.0
20260510000056 79 69 1.7 3.5 0.00 0.03 0.01 35 1011.0
20260509234549 79 66 0.0 4.3 0.00 0.03 0.01 35 1010.9
20260509233053 79 40 1.7 7.8 0.00 0.03 0.01 33 1011.0
20260509231605 80 53 3.5 8.7 0.00 0.03 0.01 33 1011.0
20260509230054 80 82 1.7 7.0 0.00 0.03 0.01 31 1011.0
20260509224554 81 105 2.6 5.2 0.00 0.03 0.01 32 1011.0
20260509223053 80 105 1.7 7.0 0.00 0.03 0.01 33 1011.0
20260509221552 79 123 2.6 11.3 0.00 0.03 0.01 34 1010.9
20260509220052 80 38 2.6 8.7 0.00 0.03 0.01 34 1010.8
20260509214551 79 68 4.3 12.2 0.00 0.03 0.01 32 1010.9
20260509213054 80 126 2.6 10.4 0.00 0.03 0.01 28 1011.0
20260509211559 80 104 4.3 9.6 0.00 0.03 0.01 28 1011.0
20260509210106 79 51 2.6 9.6 0.00 0.03 0.01 32 1011.2
20260509204552 79 73 2.6 11.3 0.00 0.03 0.01 31 1011.3
20260509203053 80 101 5.2 11.3 0.00 0.03 0.01 32 1011.3